H1 CPF 2 NER 2025 9 22 9 265 01 glonass135 H2 1600801 9135 41330 2025 9 22 0 0 0 2025 9 25 23 45 0 900 1 1 0 0 0 1 H9 10 0 60940 0.00000 0 2872774.321 11196740.077 22744509.405 10 0 60940 900.00000 0 814782.966 13029407.161 21915425.870 10 0 60940 1800.00000 0 -1010832.478 14920035.981 20660790.899 10 0 60940 2700.00000 0 -2572836.075 16807245.412 19004750.416 10 0 60940 3600.00000 0 -3852234.943 18626364.860 16979278.943 10 0 60940 4500.00000 0 -4842835.955 20312065.993 14623574.796 10 0 60940 5400.00000 0 -5551260.631 21801046.508 11983311.097 10 0 60940 6300.00000 0 -5996417.098 23034653.263 9109755.924 10 0 60940 7200.00000 0 -6208451.067 23961333.785 6058777.961 10 0 60940 8100.00000 0 -6227220.054 24538811.813 2889756.741 10 0 60940 9000.00000 0 -6100355.712 24735893.573 -335580.995 10 0 60940 9900.00000 0 -5880997.134 24533826.929 -3554375.255 10 0 60940 10800.00000 0 -5625292.459 23927154.384 -6703872.114 10 0 60940 11700.00000 0 -5389776.384 22924022.591 -9722662.637 10 0 60940 12600.00000 0 -5228736.690 21545934.367 -12551895.469 10 0 60940 13500.00000 0 -5191683.461 19826953.269 -15136437.796 10 0 60940 14400.00000 0 -5321030.137 17812394.341 -17425960.594 10 0 60940 15300.00000 0 -5650086.192 15557056.700 -19375925.915 10 0 60940 16200.00000 0 -6201447.599 13123073.057 -20948456.370 10 0 60940 17100.00000 0 -6985853.829 10577467.397 -22113069.774 10 0 60940 18000.00000 0 -8001559.905 7989524.006 -22847264.994 10 0 60940 18900.00000 0 -9234249.826 5428078.529 -23136948.392 10 0 60940 19800.00000 0 -10657494.587 2958844.343 -22976693.664 10 0 60940 20700.00000 0 -12233734.895 641885.501 -22369831.266 10 0 60940 21600.00000 0 -13915746.636 -1470659.396 -21328367.044 10 0 60940 22500.00000 0 -15648527.069 -3336509.061 -19872732.876 10 0 60940 23400.00000 0 -17371522.207 -4924748.617 -18031375.300 10 0 60940 24300.00000 0 -19021101.950 -6216855.433 -15840191.021 10 0 60940 25200.00000 0 -20533179.410 -7207201.529 -13341820.899 10 0 60940 26100.00000 0 -21845865.102 -7903014.225 -10584816.566 10 0 60940 27000.00000 0 -22902045.515 -8323799.280 -7622696.043 10 0 60940 27900.00000 0 -23651778.878 -8500252.918 -4512906.633 10 0 60940 28800.00000 0 -24054408.667 -8472710.308 -1315715.083 10 0 60940 29700.00000 0 -24080307.292 -8289197.005 1906953.831 10 0 60940 30600.00000 0 -23712177.719 -8003166.203 5092708.286 10 0 60940 31500.00000 0 -22945859.202 -7671017.365 8179887.442 10 0 60940 32400.00000 0 -21790603.736 -7349500.667 11108744.079 10 0 60940 33300.00000 0 -20268811.697 -7093116.206 13822589.776 10 0 60940 34200.00000 0 -18415237.326 -6951616.927 16268881.373 10 0 60940 35100.00000 0 -16275696.449 -6967719.864 18400228.652 10 0 60940 36000.00000 0 -13905329.154 -7175121.580 20175304.683 10 0 60940 36900.00000 0 -11366488.326 -7596901.159 21559642.037 10 0 60940 37800.00000 0 -8726340.206 -8244378.201 22526300.116 10 0 60940 38700.00000 0 -6054274.917 -9116474.583 23056391.066 10 0 60940 39600.00000 0 -3419232.831 -10199608.130 23139454.093 10 0 60940 40500.00000 0 -887056.217 -11468124.456 22773670.579 10 0 60940 41400.00000 0 1482025.114 -12885251.032 21965915.046 10 0 60940 42300.00000 0 3635670.575 -14404535.805 20731639.786 10 0 60940 43200.00000 0 5531373.780 -15971712.343 19094593.981 10 0 60940 44100.00000 0 7137994.858 -17526915.334 17086381.054 10 0 60940 45000.00000 0 8436815.907 -19007155.001 14745861.219 10 0 60940 45900.00000 0 9422075.075 -20348947.499 12118409.281 10 0 60940 46800.00000 0 10100956.368 -21490990.969 9255040.851 10 0 60940 47700.00000 0 10493035.229 -22376774.166 6211423.216 10 0 60940 48600.00000 0 10629203.069 -22957006.711 3046789.808 10 0 60940 49500.00000 0 10550116.306 -23191766.940 -177220.304 10 0 60940 50400.00000 0 10304236.110 -23052274.856 -3397774.434 10 0 60940 51300.00000 0 9945542.876 -22522213.481 -6552084.914 10 0 60940 52200.00000 0 9531023.727 -21598541.032 -9578648.631 10 0 60940 53100.00000 0 9118041.312 -20291758.314 -12418461.513 10 0 60940 54000.00000 0 8761697.320 -18625619.094 -15016182.613 10 0 60940 54900.00000 0 8512304.313 -16636295.271 -17321223.652 10 0 60940 55800.00000 0 8413074.575 -14371032.119 -19288741.618 10 0 60940 56700.00000 0 8498125.045 -11886350.577 -20880514.501 10 0 60940 57600.00000 0 8790883.475 -9245872.757 -22065682.930 10 0 60940 58500.00000 0 9302963.385 -6517862.536 -22821343.622 10 0 60940 59400.00000 0 10033555.115 -3772584.722 -23132983.860 10 0 60940 60300.00000 0 10969358.045 -1079593.367 -22994749.625 10 0 60940 61200.00000 0 12085056.008 1494937.797 -22409543.403 10 0 60940 62100.00000 0 13344314.957 3890732.214 -21388951.118 10 0 60940 63000.00000 0 14701260.071 6055671.086 -19953000.847 10 0 60940 63900.00000 0 16102369.473 7947705.217 -18129759.141 10 0 60940 64800.00000 0 17488704.553 9536340.703 -15954773.703 10 0 60940 65700.00000 0 18798383.061 10803638.963 -13470373.919 10 0 60940 66600.00000 0 19969191.260 11744692.019 -10724843.281 10 0 60940 67500.00000 0 20941225.887 12367555.758 -7771479.974 10 0 60940 68400.00000 0 21659455.655 12692646.411 -4667563.836 10 0 60940 69300.00000 0 22076095.532 12751627.609 -1473249.612 10 0 60940 70200.00000 0 22152695.002 12585836.395 1749592.412 10 0 60940 71100.00000 0 21861853.434 12244315.445 4938566.397 10 0 60940 72000.00000 0 21188491.221 11781534.884 8031949.087 10 0 60940 72900.00000 0 20130623.761 11254899.669 10969873.647 10 0 60940 73800.00000 0 18699605.858 10722147.187 13695477.123 10 0 60940 74700.00000 0 16919835.906 10238744.047 16155990.198 10 0 60940 75600.00000 0 14827931.416 9855390.908 18303749.154 10 0 60940 76500.00000 0 12471409.018 9615739.630 20097111.372 10 0 60940 77400.00000 0 9906922.401 9554418.246 21501257.477 10 0 60940 78300.00000 0 7198129.662 9695446.585 22488865.292 10 0 60940 79200.00000 0 4413276.731 10051109.339 23040642.921 10 0 60940 80100.00000 0 1622595.270 10621334.671 23145710.677 10 0 60940 81000.00000 0 -1104378.762 11393605.671 22801824.124 10 0 60940 81900.00000 0 -3701456.183 12343410.054 22015433.142 10 0 60940 82800.00000 0 -6108306.375 13435211.201 20801574.713 10 0 60940 83700.00000 0 -8272726.179 14623901.821 19183600.091 10 0 60940 84600.00000 0 -10152571.819 15856681.207 17192739.965 10 0 60940 85500.00000 0 -11717273.243 17075278.802 14867514.426 10 0 60941 0.00000 0 -12948867.151 18218431.648 12252997.876 10 0 60941 900.00000 0 -13842505.565 19224512.518 9399950.429 10 0 60941 1800.00000 0 -14406416.469 20034196.305 6363835.481 10 0 60941 2700.00000 0 -14661319.991 20593053.395 3203737.556 10 0 60941 3600.00000 0 -14639322.928 20853957.572 -18794.805 10 0 60941 4500.00000 0 -14382339.339 20779205.554 -3240959.086 10 0 60941 5400.00000 0 -13940104.641 20342256.483 -6399936.712 10 0 60941 6300.00000 0 -13367868.474 19529015.863 -9434133.153 10 0 60941 7200.00000 0 -12723865.614 18338607.987 -12284394.238 10 0 60941 8100.00000 0 -12066673.867 16783602.892 -14895173.318 10 0 60941 9000.00000 0 -11452572.627 14889687.398 -17215625.027 10 0 60941 9900.00000 0 -10933015.597 12694793.732 -19200603.188 10 0 60941 10800.00000 0 -10552325.898 10247722.488 -20811542.746 10 0 60941 11700.00000 0 -10345711.835 7606318.092 -22017208.415 10 0 60941 12600.00000 0 -10337687.457 4835273.870 -22794295.721 10 0 60941 13500.00000 0 -10540964.328 2003659.077 -23127873.509 10 0 60941 14400.00000 0 -10955860.539 -817728.463 -23011660.363 10 0 60941 15300.00000 0 -11570250.839 -3559073.596 -22448130.781 10 0 60941 16200.00000 0 -12360058.730 -6154206.406 -21448450.401 10 0 60941 17100.00000 0 -13290268.572 -8543106.180 -20032242.782 10 0 60941 18000.00000 0 -14316413.948 -10674143.885 -18227193.422 10 0 60941 18900.00000 0 -15386478.749 -12505971.675 -16068499.646 10 0 60941 19800.00000 0 -16443130.461 -14008982.928 -13598177.719 10 0 60941 20700.00000 0 -17426191.416 -15166284.350 -10864241.125 10 0 60941 21600.00000 0 -18275244.181 -15974142.096 -7919766.173 10 0 60941 22500.00000 0 -18932261.870 -16441885.687 -4821863.056 10 0 60941 23400.00000 0 -19344153.351 -16591275.916 -1630572.221 10 0 60941 24300.00000 0 -19465117.017 -16455365.091 1592292.943 10 0 60941 25200.00000 0 -19258704.902 -16076898.798 4784335.098 10 0 60941 26100.00000 0 -18699511.021 -15506327.163 7883771.197 10 0 60941 27000.00000 0 -17774413.406 -14799509.573 10830617.490 10 0 60941 27900.00000 0 -16483317.818 -14015209.211 13567839.214 10 0 60941 28800.00000 0 -14839371.610 -13212482.298 16042443.593 10 0 60941 29700.00000 0 -12868638.025 -12448071.029 18206495.976 10 0 60941 30600.00000 0 -10609243.264 -11773908.949 20018040.405 10 0 60941 31500.00000 0 -8110030.306 -11234842.773 21441907.634 10 0 60941 32400.00000 0 -5428773.561 -10866665.733 22450395.627 10 0 60941 33300.00000 0 -2630026.447 -10694544.771 23023809.781 10 0 60941 34200.00000 0 217310.860 -10731907.748 23150852.459 10 0 60941 35100.00000 0 3042604.662 -10979838.049 22828853.955 10 0 60941 36000.00000 0 5776175.366 -11427003.068 22063839.687 10 0 60941 36900.00000 0 8351949.401 -12050121.084 20870431.149 10 0 60941 37800.00000 0 10709966.327 -12814948.610 19271581.142 10 0 60941 38700.00000 0 12798637.405 -13677748.489 17298146.761 10 0 60941 39600.00000 0 14576661.621 -14587178.565 14988306.751 10 0 60941 40500.00000 0 16014518.886 -15486522.647 12386833.011 10 0 60941 41400.00000 0 17095477.402 -16316170.457 9544229.101 10 0 60941 42300.00000 0 17816072.265 -17016241.977 6515751.688 10 0 60941 43200.00000 0 18186034.590 -17529244.812 3360333.636 10 0 60941 44100.00000 0 18227673.772 -17802651.034 139429.912 10 0 60941 45000.00000 0 17974738.918 -17791282.850 -3084190.376 10 0 60941 45900.00000 0 17470807.966 -17459404.172 -6247681.083 10 0 60941 46800.00000 0 16767273.499 -16782427.509 -9289359.576 10 0 60941 47700.00000 0 15921011.785 -15748162.006 -12149924.807 10 0 60941 48600.00000 0 14991835.291 -14357548.201 -14773627.454 10 0 60941 49500.00000 0 14039838.166 -12624847.200 -17109367.867 10 0 60941 50400.00000 0 13122748.648 -10577275.530 -19111699.190 10 0 60941 51300.00000 0 12293401.705 -8254100.686 -20741715.476 10 0 60941 52200.00000 0 11597439.578 -5705235.477 -21967807.266 10 0 60941 53100.00000 0 11071337.724 -2989390.464 -22766270.199 10 0 60941 54000.00000 0 10740839.230 -171862.267 -23121755.540 10 0 60941 54900.00000 0 10619862.929 2677949.454 -23027554.864 10 0 60941 55800.00000 0 10709930.058 5489192.535 -22485714.635 10 0 60941 56700.00000 0 11000132.093 8192270.077 -21506979.749 10 0 60941 57600.00000 0 11467639.479 10721493.311 -20110568.415 10 0 60941 58500.00000 0 12078728.268 13017570.113 -18323783.907 10 0 60941 59400.00000 0 12790280.015 15029827.117 -16181471.671 10 0 60941 60300.00000 0 13551690.710 16718074.763 -13725333.034 10 0 60941 61200.00000 0 14307107.620 18054039.660 -11003109.343 10 0 60941 62100.00000 0 14997899.502 19022306.857 -8067652.605 10 0 60941 63000.00000 0 15565256.178 19620734.976 -4975900.679 10 0 60941 63900.00000 0 15952808.305 19860328.987 -1787776.795 10 0 60941 64800.00000 0 16109157.544 19764577.898 1434965.610 10 0 60941 65700.00000 0 15990211.259 19368286.577 4629930.821 10 0 60941 66600.00000 0 15561224.070 18715951.797 7735279.081 10 0 60941 67500.00000 0 14798460.859 17859751.169 10690912.695 10 0 60941 68400.00000 0 13690411.533 16857229.469 13439627.881 10 0 60941 69300.00000 0 12238506.317 15768779.136 15928210.959 10 0 60941 70200.00000 0 10457300.966 14655020.004 18108458.639 10 0 60941 71100.00000 0 8374122.950 13574187.309 19938103.653 10 0 60941 72000.00000 0 6028191.837 12579636.604 21381628.598 10 0 60941 72900.00000 0 3469248.520 11717569.313 22410952.970 10 0 60941 73800.00000 0 755748.129 11025073.629 23005980.497 10 0 60941 74700.00000 0 -2047310.636 10528562.559 23154996.230 10 0 60941 75600.00000 0 -4870831.893 10242674.702 22854905.399 10 0 60941 76500.00000 0 -7644245.290 10169684.374 22111308.684 10 0 60941 77400.00000 0 -10298197.898 10299446.803 20938411.324 10 0 60941 78300.00000 0 -12767204.789 10609881.924 19358766.407 10 0 60941 79200.00000 0 -14992148.920 11067977.867 17402855.691 10 0 60941 80100.00000 0 -16922526.441 11631273.336 15108514.421 10 0 60941 81000.00000 0 -18518343.566 12249757.599 12520209.759 10 0 60941 81900.00000 0 -19751585.147 12868108.788 9688185.516 10 0 60941 82800.00000 0 -20607192.595 13428176.232 6667488.994 10 0 60941 83700.00000 0 -21083509.269 13871601.573 3516898.475 10 0 60941 84600.00000 0 -21192173.897 14142466.787 297772.443 10 0 60941 85500.00000 0 -20957466.096 14189855.533 -2927156.285 10 0 60942 0.00000 0 -20415131.724 13970217.459 -6095016.520 10 0 60942 900.00000 0 -19610737.820 13449433.088 -9144040.816 10 0 60942 1800.00000 0 -18597628.450 12604490.075 -12014783.535 10 0 60942 2700.00000 0 -17434568.241 11424697.636 -14651295.088 10 0 60942 3600.00000 0 -16183175.455 9912386.452 -17002223.683 10 0 60942 4500.00000 0 -14905254.441 8083063.300 -19021823.639 10 0 60942 5400.00000 0 -13660141.554 5965013.249 -20670849.604 10 0 60942 6300.00000 0 -12502177.599 3598365.867 -21917319.060 10 0 60942 7200.00000 0 -11478413.895 1033664.766 -22737128.490 10 0 60942 8100.00000 0 -10626648.570 -1669999.279 -23114511.901 10 0 60942 9000.00000 0 -9973875.049 -4447213.236 -23042333.829 10 0 60942 9900.00000 0 -9535206.858 -7228731.553 -22522212.306 10 0 60942 10800.00000 0 -9313322.294 -9944126.861 -21564470.752 10 0 60942 11700.00000 0 -9298450.427 -12524491.555 -20187920.983 10 0 60942 12600.00000 0 -9468897.039 -14905078.421 -18419482.728 10 0 60942 13500.00000 0 -9792086.466 -17027771.483 -16293647.998 10 0 60942 14400.00000 0 -10226073.859 -18843285.708 -13851801.448 10 0 60942 15300.00000 0 -10721462.902 -20313005.656 -11141410.426 10 0 60942 16200.00000 0 -11223647.329 -21410388.462 -8215100.695 10 0 60942 17100.00000 0 -11675281.361 -22121874.655 -5129635.792 10 0 60942 18000.00000 0 -12018874.880 -22447270.781 -1944819.705 10 0 60942 18900.00000 0 -12199404.233 -22399589.699 1277656.147 10 0 60942 19800.00000 0 -12166829.087 -22004356.744 4475399.787 10 0 60942 20700.00000 0 -11878409.852 -21298411.995 7586516.947 10 0 60942 21600.00000 0 -11300728.587 -20328259.511 10550798.266 10 0 60942 22500.00000 0 -10411328.647 -19148032.948 13310873.273 10 0 60942 23400.00000 0 -9199904.121 -17817162.619 15813309.729 10 0 60942 24300.00000 0 -7668988.691 -16397841.131 18009638.013 10 0 60942 25200.00000 0 -5834114.070 -14952392.869 19857281.715 10 0 60942 26100.00000 0 -3723429.949 -13540656.439 21320377.260 10 0 60942 27000.00000 0 -1376799.430 -12217488.542 22370467.406 10 0 60942 27900.00000 0 1155594.637 -11030492.786 22987055.641 10 0 60942 28800.00000 0 3815076.833 -10018067.760 23158010.806 10 0 60942 29700.00000 0 6536666.396 -9207855.687 22879813.835 10 0 60942 30600.00000 0 9251536.008 -8615656.641 22157641.111 10 0 60942 31500.00000 0 11889642.015 -8244854.241 21005281.720 10 0 60942 32400.00000 0 14382418.406 -8086377.708 19444888.810 10 0 60942 33300.00000 0 16665423.575 -8119202.885 17506568.240 10 0 60942 34200.00000 0 18680830.097 -8311372.280 15227810.836 10 0 60942 35100.00000 0 20379653.600 -8621492.230 12652777.708 10 0 60942 36000.00000 0 21723627.043 -9000644.800 9831451.190 10 0 60942 36900.00000 0 22686641.007 -9394634.065 6818667.058 10 0 60942 37800.00000 0 23255688.515 -9746471.592 3673046.439 10 0 60942 38700.00000 0 23431273.684 -9998995.189 455848.383 10 0 60942 39600.00000 0 23227266.201 -10097508.683 -2770233.799 10 0 60942 40500.00000 0 22670207.337 -9992329.101 -5942307.824 10 0 60942 41400.00000 0 21798096.887 -9641131.279 -8998523.716 10 0 60942 42300.00000 0 20658712.777 -9010988.358 -11879295.177 10 0 60942 43200.00000 0 19307535.350 -8080019.742 -14528475.520 10 0 60942 44100.00000 0 17805365.287 -6838574.977 -16894463.739 10 0 60942 45000.00000 0 16215737.189 -5289902.105 -18931217.949 10 0 60942 45900.00000 0 14602239.329 -3450271.341 -20599155.680 10 0 60942 46800.00000 0 13025853.661 -1348548.319 -21865923.270 10 0 60942 47700.00000 0 11542428.808 974765.266 -22707019.551 10 0 60942 48600.00000 0 10200392.469 3468983.263 -23106262.367 10 0 60942 49500.00000 0 9038798.879 6075117.803 -23056089.858 10 0 60942 50400.00000 0 8085792.310 8728114.173 -22557691.828 10 0 60942 51300.00000 0 7357549.421 11359344.340 -21620969.986 10 0 60942 52200.00000 0 6857742.900 13899255.217 -20264329.101 10 0 60942 53100.00000 0 6577546.637 16280061.687 -18514304.295 10 0 60942 54000.00000 0 6496179.935 18438372.917 -16405032.708 10 0 60942 54900.00000 0 6581965.754 20317643.700 -13977580.512 10 0 60942 55800.00000 0 6793856.616 21870350.034 -11279138.897 10 0 60942 56700.00000 0 7083362.515 23059799.883 -8362104.904 10 0 60942 57600.00000 0 7396798.654 23861505.368 -5283064.965 10 0 60942 58500.00000 0 7677757.742 24264060.865 -2101700.820 10 0 60942 59400.00000 0 7869702.542 24269492.026 1120361.306 10 0 60942 60300.00000 0 7918569.584 23893062.594 4320736.431 10 0 60942 61200.00000 0 7775274.681 23162548.248 7437479.010 10 0 60942 62100.00000 0 7398015.163 22117008.614 10410271.137 10 0 60942 63000.00000 0 6754272.260 20805109.168 13181578.603 10 0 60942 63900.00000 0 5822429.558 19283063.083 15697753.329 10 0 60942 64800.00000 0 4592939.279 17612278.641 17910061.803 10 0 60942 65700.00000 0 3068986.765 15856809.659 19775620.627 10 0 60942 66600.00000 0 1266624.167 14080714.433 21258221.881 10 0 60942 67500.00000 0 -785633.986 12345432.334 22329033.068 10 0 60942 68400.00000 0 -3047738.551 10707286.417 22967158.542 10 0 60942 69300.00000 0 -5469520.629 9215215.376 23160051.623 10 0 60942 70200.00000 0 -7992537.148 7908828.788 22903769.181 10 0 60942 71100.00000 0 -10552272.963 6816866.527 22203063.032 10 0 60942 72000.00000 0 -13080610.116 5956126.769 21071305.324 10 0 60942 72900.00000 0 -15508463.456 5330907.795 19530247.948 10 0 60942 73800.00000 0 -17768474.305 4932987.627 17609619.036 10 0 60942 74700.00000 0 -19797650.609 4742143.186 15346562.697 10 0 60942 75600.00000 0 -21539843.584 4727187.942 12784931.314 10 0 60942 76500.00000 0 -22947956.882 4847485.030 9974442.778 10 0 60942 77400.00000 0 -23985794.833 5054872.367 6969718.186 10 0 60942 78300.00000 0 -24629471.083 5295918.310 3829218.281 10 0 60942 79200.00000 0 -24868317.126 5514411.849 614099.458 10 0 60942 80100.00000 0 -24705251.342 5653980.696 -2612987.649 10 0 60942 81000.00000 0 -24156592.134 5660724.735 -5789132.424 10 0 60942 81900.00000 0 -23251322.609 5485751.215 -8852405.850 10 0 60942 82800.00000 0 -22029837.929 5087502.102 -11743083.421 10 0 60942 83700.00000 0 -20542228.782 4433772.824 -14404823.870 10 0 60942 84600.00000 0 -18846174.377 3503335.030 -16785779.218 10 0 60942 85500.00000 0 -17004535.090 2287093.098 -18839613.253 10 0 60943 0.00000 0 -15082747.685 788724.535 -20526407.712 10 0 60943 900.00000 0 -13146132.887 -975224.356 -21813439.062 10 0 60943 1800.00000 0 -11257231.941 -2975789.790 -22675808.781 10 0 60943 2700.00000 0 -9473280.963 -5172572.517 -23096918.508 10 0 60943 3600.00000 0 -7843931.342 -7515207.162 -23068779.461 10 0 60943 4500.00000 0 -6409309.900 -9945257.784 -22592152.259 10 0 60943 5400.00000 0 -5198498.790 -12398459.985 -21676515.570 10 0 60943 6300.00000 0 -4228496.838 -14807215.818 -20339865.480 10 0 60943 7200.00000 0 -3503703.537 -17103237.452 -18608350.634 10 0 60943 8100.00000 0 -3015944.820 -19220229.787 -16515751.255 10 0 60943 9000.00000 0 -2745037.023 -21096500.872 -14102812.900 10 0 60943 9900.00000 0 -2659863.073 -22677392.296 -11416448.431 10 0 60943 10800.00000 0 -2719913.692 -23917429.444 -8508824.004 10 0 60943 11700.00000 0 -2877227.255 -24782103.340 -5436346.858 10 0 60943 12600.00000 0 -3078645.580 -25249211.162 -2258574.457 10 0 60943 13500.00000 0 -3268290.075 -25309700.926 962934.122 10 0 60943 14400.00000 0 -3390153.702 -24967986.324 4165802.795 10 0 60943 15300.00000 0 -3390699.735 -24241719.647 7288036.619 10 0 60943 16200.00000 0 -3221358.120 -23161032.995 10269211.020 10 0 60943 17100.00000 0 -2840814.722 -21767279.841 13051629.926 10 0 60943 18000.00000 0 -2216997.394 -20111329.451 15581431.269 10 0 60943 18900.00000 0 -1328675.370 -18251484.934 17809619.448 10 0 60943 19800.00000 0 -166604.454 -16251110.960 19693005.768 10 0 60943 20700.00000 0 1265830.872 -14176069.037 21195039.496 10 0 60943 21600.00000 0 2952506.670 -12092065.988 22286514.214 10 0 60943 22500.00000 0 4864986.591 -10062024.816 22946136.223 10 0 60943 23400.00000 0 6963471.148 -8143586.303 23160944.148 10 0 60943 24300.00000 0 9198232.110 -6386844.425 22926571.344 10 0 60943 25200.00000 0 11511474.869 -4832409.264 22247345.345 10 0 60943 26100.00000 0 13839553.574 -3509877.899 21136221.382 10 0 60943 27000.00000 0 16115448.943 -2436777.104 19614549.849 10 0 60943 27900.00000 0 18271407.109 -1618022.413 17711680.642 10 0 60943 28800.00000 0 20241630.457 -1045916.753 15464410.370 10 0 60943 29700.00000 0 21964908.459 -700689.322 12916281.586 10 0 60943 30600.00000 0 23387078.209 -551552.628 10116746.296 10 0 60943 31500.00000 0 24463210.734 -558233.494 7120209.118 10 0 60943 32400.00000 0 25159430.094 -672913.401 3984968.225 10 0 60943 33300.00000 0 25454287.393 -842495.650 772074.826 10 0 60943 34200.00000 0 25339630.355 -1011102.426 -2455865.938 10 0 60943 35100.00000 0 24820930.610 -1122694.508 -5635928.162 10 0 60943 36000.00000 0 23917053.955 -1123700.777 -8706106.913 10 0 60943 36900.00000 0 22659482.880 -965543.948 -11606542.584 10 0 60943 37800.00000 0 21091024.248 -606953.383 -14280702.327 10 0 60943 38700.00000 0 19264057.183 -15964.987 -16676493.987 10 0 60943 39600.00000 0 17238395.939 828478.170 -18747289.585 10 0 60943 40500.00000 0 15078858.858 1935393.500 -20452837.614 10 0 60943 41400.00000 0 12852646.722 3301143.518 -21760046.063 10 0 60943 42300.00000 0 10626641.589 4909363.801 -22643621.081 10 0 60943 43200.00000 0 8464739.877 6731437.392 -23086549.454 10 0 60943 44100.00000 0 6425331.490 8727495.505 -23080416.465 10 0 60943 45000.00000 0 4559029.873 10847902.149 -22625554.133 10 0 60943 45900.00000 0 2906746.761 13035160.090 -21731018.245 10 0 60943 46800.00000 0 1498190.320 15226158.080 -20414395.913 10 0 60943 47700.00000 0 350847.275 17354665.268 -18701448.569 10 0 60943 48600.00000 0 -530510.966 19353968.690 -16625598.349 10 0 60943 49500.00000 0 -1153780.161 21159544.147 -14227268.593 10 0 60943 50400.00000 0 -1538937.687 22711649.550 -11553091.847 10 0 60943 51300.00000 0 -1716946.534 23957733.440 -8655001.039 10 0 60943 52200.00000 0 -1728196.885 24854559.157 -5589221.540 10 0 60943 53100.00000 0 -1620552.308 25369957.143 -2415183.624 10 0 60943 54000.00000 0 -1447083.859 25484133.381 805623.899 10 0 60943 54900.00000 0 -1263588.000 25190480.388 4010837.069 10 0 60943 55800.00000 0 -1125993.069 24495857.823 7138414.796 10 0 60943 56700.00000 0 -1087763.319 23420331.583 10127829.046 10 0 60943 57600.00000 0 -1197409.530 21996382.626 12921224.966 10 0 60943 58500.00000 0 -1496210.578 20267618.410 15464529.398 10 0 60943 59400.00000 0 -2016241.561 18287040.270 17708487.327 10 0 60943 60300.00000 0 -2778791.403 16114938.055 19609607.173 10 0 60943 61200.00000 0 -3793236.782 13816498.635 21130997.512 10 0 60943 62100.00000 0 -5056420.564 11459226.439 22243079.779 10 0 60943 63000.00000 0 -6552562.207 9110281.897 22924163.640 10 0 60943 63900.00000 0 -8253705.791 6833847.100 23160874.016 10 0 60943 64800.00000 0 -10120689.230 4688626.967 22948421.266 10 0 60943 65700.00000 0 -12104596.688 2725588.890 22290708.652 10 0 60943 66600.00000 0 -14148636.027 986034.322 21200273.936 10 0 60943 67500.00000 0 -16190365.251 -499917.625 19698064.902 10 0 60943 68400.00000 0 -18164176.875 -1714371.241 17813051.534 10 0 60943 69300.00000 0 -20003937.750 -2652176.067 15581680.737 10 0 60943 70200.00000 0 -21645674.643 -3320907.226 13047182.571 10 0 60943 71100.00000 0 -23030193.109 -3740304.540 10258740.126 10 0 60943 72000.00000 0 -24105519.181 -3941193.675 7270538.228 10 0 60943 72900.00000 0 -24829060.163 -3963934.735 4140709.025 10 0 60943 73800.00000 0 -25169392.124 -3856464.107 930195.005 10 0 60943 74700.00000 0 -25107597.157 -3672013.185 -2298447.696 10 0 60943 75600.00000 0 -24638092.419 -3466601.802 -5482281.308 10 0 60943 76500.00000 0 -23768914.660 -3296414.236 -8559228.274 10 0 60943 77400.00000 0 -22521447.312 -3215170.973 -11469297.007 10 0 60943 78300.00000 0 -20929601.233 -3271609.689 -14155765.947 10 0 60943 79200.00000 0 -19038483.742 -3507184.188 -16566301.333 10 0 60943 80100.00000 0 -16902612.532 -3954080.532 -18653985.591 10 0 60943 81000.00000 0 -14583750.491 -4633635.678 -20378235.521 10 0 60943 81900.00000 0 -12148453.333 -5555226.430 -21705592.062 10 0 60943 82800.00000 0 -9665433.895 -6715676.093 -22610366.368 10 0 60943 83700.00000 0 -7202854.163 -8099203.921 -23075130.247 10 0 60943 84600.00000 0 -4825658.551 -9677919.238 -23091042.321 10 0 60943 85500.00000 0 -2593059.613 -11412838.996 -22658004.743 99